Location: B?jaj?g
(11.7167°N, 92.6667°E)
Time: 23:20:39
(UTC+00:00)

ARGOS - Pass Details

Date: 18 September 2020
Orbit: 821 x 834 km, 98.4° (Epoch: 31 October)

Event Time Altitude Azimuth Distance (km) Brightness Sun altitude
Exits shadow 14:07:32 40° 280° (W) 1,181 4.3 -34.8°
Drops below altitude 10° 14:11:51 10° 330° (NNW) 2,411 6.0 -35.8°
Sets 14:14:19 0° 337° (NNW) 3,344 6.7 -36.4°
